KDAY Airport Diagram

We have created a template for each of the higher traffic airports in the vZID airspace. They include KCMH, KCRW, KCVG, KDAY, KIND, KLEX and KSDF. You wil find usefull information including the airport diagram, weather, and specific airport procedures.

KDAY Weather

[Source: ADDS]
METAR
KDAY 230156Z 05007KT 6SM HZ OVC240 01/M02 A3034 RMK AO2 SLP283 T00111022 =
KDAY 222343Z 2300/2324 07007KT P6SM BKN080 OVC250 FM230900 11007KT P6SM VCSH OVC040 FM231500 12008KT P6SM -SHRA OVC015 FM231800 14012KT P6SM VCSH OVC008
TAF
KDAY 222343Z 2300/2324 07007KT P6SM BKN080 OVC250 FM230900 11007KT P6SM VCSH OVC040 FM231500 12008KT P6SM -SHRA OVC015 FM231800 14012KT P6SM VCSH OVC008 =

KDAY Operations

Approach/Departure operations for KDAY were consolidated into the Columbus TRACON quite some time back. We have recently made that change here at ZID. When arriving/departing the Dayton Airport and airports in the surrounding area, contact with the Columbus APP/DEP controller, if online, should be expected.

Calm Wind Configuration is runways 24L/R. This configuration is used up to and including 10kts.

Runway 24L typically departs south and east, except larger aircraft requiring a longer runway.

Runway 24R typically departs north and west.

 

JSN Epic template designed by JoomlaShine.com